TimeMDT,TemperatureF,Dew PointF,Humidity,Sea Level PressureIn,VisibilityMPH,Wind Direction,Wind SpeedMPH,Gust SpeedMPH,PrecipitationIn,Events,Conditions,WindDirDegrees,DateUTC
12:51 AM,77.0,53.1,43,29.80,10.0,SSW,4.6,-,N/A,,Partly Cloudy,200,2013-07-16 06:51:00
1:51 AM,73.0,55.0,53,29.78,10.0,West,5.8,-,N/A,,Partly Cloudy,280,2013-07-16 07:51:00
2:51 AM,72.0,55.0,55,29.79,10.0,NE,5.8,-,N/A,,Clear,50,2013-07-16 08:51:00
3:51 AM,75.0,53.1,46,29.78,10.0,Calm,Calm,-,N/A,,Clear,0,2013-07-16 09:51:00
4:51 AM,73.9,54.0,50,29.78,10.0,Calm,Calm,-,N/A,,Partly Cloudy,0,2013-07-16 10:51:00
5:51 AM,70.0,57.9,65,29.81,10.0,Calm,Calm,-,N/A,,Scattered Clouds,0,2013-07-16 11:51:00
6:51 AM,69.1,57.0,65,29.83,10.0,Calm,Calm,-,N/A,,Clear,0,2013-07-16 12:51:00
7:51 AM,71.1,57.0,61,29.86,10.0,Calm,Calm,-,N/A,,Clear,0,2013-07-16 13:51:00
8:51 AM,72.0,61.0,68,29.88,10.0,NNW,4.6,-,N/A,,Clear,330,2013-07-16 14:51:00
9:51 AM,75.0,55.9,51,29.88,10.0,North,3.5,-,N/A,,Clear,350,2013-07-16 15:51:00
10:51 AM,79.0,55.9,45,29.87,10.0,Calm,Calm,-,N/A,,Clear,0,2013-07-16 16:51:00
11:51 AM,81.0,54.0,39,29.88,10.0,Calm,Calm,-,N/A,,Clear,0,2013-07-16 17:51:00
12:51 PM,82.9,54.0,37,29.87,10.0,WSW,3.5,-,N/A,,Mostly Cloudy,250,2013-07-16 18:51:00
1:51 PM,80.1,57.0,45,29.88,10.0,Calm,Calm,-,0.00,Rain,Light Rain,0,2013-07-16 19:51:00
2:51 PM,88.0,52.0,29,29.85,10.0,ENE,4.6,-,0.00,,Clear,60,2013-07-16 20:51:00
3:51 PM,89.1,52.0,28,29.82,10.0,NW,8.1,-,N/A,,Clear,310,2013-07-16 21:51:00
4:51 PM,89.1,52.0,28,29.82,10.0,WNW,6.9,-,N/A,,Clear,300,2013-07-16 22:51:00
5:51 PM,86.0,50.0,29,29.85,10.0,East,24.2,33.4,N/A,,Clear,100,2013-07-16 23:51:00
6:51 PM,86.0,48.0,27,29.82,10.0,SE,13.8,26.5,N/A,,Partly Cloudy,140,2013-07-17 00:51:00
7:51 PM,84.0,50.0,31,29.87,10.0,SSE,8.1,-,N/A,,Partly Cloudy,160,2013-07-17 01:51:00
8:51 PM,82.0,52.0,35,29.88,10.0,South,10.4,-,N/A,,Overcast,170,2013-07-17 02:51:00
9:51 PM,75.0,57.0,53,29.94,10.0,SSW,11.5,-,0.00,Rain,Light Rain,200,2013-07-17 03:51:00
10:51 PM,75.9,54.0,46,29.94,10.0,South,10.4,-,0.00,,Mostly Cloudy,190,2013-07-17 04:51:00
11:51 PM,71.1,57.0,61,29.91,10.0,West,6.9,-,N/A,,Mostly Cloudy,280,2013-07-17 05:51:00